Flag for Denmark Weather past 2 weeks in Aarhus, Denmark

Now
39 °F

Passing clouds.


Feels Like: 31 °F
Forecast: 39 / 42 °F
Wind: 14 mph from West

Location: Tirstrup

Current Time: Dec 20, 2014 at 12:45:46 AM

Latest Report: Dec 20, 2014 at 12:20 AM


Visibility: N/A

Pressure: 29.50 "Hg

Humidity: 81%

Dew point: 34 °F

Location of AarhusLocation

Historic Weather in Aarhus — Graph

°F

Aarhus temperature yesterday

Maximum temperature yesterday: 50 °F (at 12:20 AM)
Minimum temperature yesterday: 39 °F (at 5:20 PM)
Average temperature yesterday: 44 °F

Past Weeks' High & Low Weather Summary

 TemperatureHumidityPressure
High52 °F (Dec 18, 11:50 PM)94% (Dec 18, 1:50 PM)30.15 "Hg (Dec 18, 1:50 PM)
Low30 °F (Dec 9, 12:20 AM)66% (Dec 6, 2:20 PM)28.88 "Hg (Dec 12, 5:20 PM)
Average40 °F83%29.64 "Hg
* Reported Dec 4 11:20 PM — Dec 19 11:50 PM, Aarhus, Weather by CustomWeather, © 2014

Note: Actual official high and low records may vary slightly from our data, if they occured in-between our weather recording intervals... More about our weather records

Advertising

Aarhus weather history for previous 24 hours

 ConditionsComfort  
Time TempWeatherWind HumidityBarometerVisibility
11:50 PM
Dec 19
39 °FPassing clouds.13 mph75%29.50 "HgN/A
11:20 PM39 °FSprinkles. Passing clouds.12 mph75%29.50 "HgN/A
10:50 PM39 °FSprinkles. Passing clouds.9 mph81%29.50 "HgN/A
10:20 PM39 °FSprinkles. Passing clouds.16 mph81%29.50 "HgN/A
9:50 PM39 °FPassing clouds.15 mph81%29.50 "HgN/A
9:20 PM39 °FPartly cloudy.15 mph81%29.50 "HgN/A
8:50 PM39 °FSprinkles. Passing clouds.14 mph81%29.50 "Hg5 mi
8:20 PM41 °FPartly cloudy.14 mph76%29.50 "HgN/A
7:50 PM39 °FPassing clouds.13 mph81%29.47 "HgN/A
7:20 PM39 °FChilly.15 mph81%29.47 "HgN/A
6:50 PM41 °FPassing clouds.14 mph70%29.47 "HgN/A
6:20 PM39 °FPassing clouds.10 mph81%29.45 "HgN/A
5:50 PM39 °FPassing clouds.12 mph81%29.45 "HgN/A
5:20 PM39 °FPassing clouds.10 mph81%29.45 "HgN/A
4:50 PM41 °FPassing clouds.14 mph70%29.45 "HgN/A
4:20 PM41 °FPassing clouds.10 mph81%29.45 "HgN/A
3:50 PM41 °FPassing clouds.13 mph81%29.42 "HgN/A
3:20 PM41 °FSprinkles. Partly sunny.16 mph81%29.42 "Hg6 mi
2:50 PM43 °FSprinkles. Scattered clouds.13 mph76%29.42 "HgN/A
2:20 PM43 °FScattered clouds.13 mph76%29.42 "HgN/A
1:50 PM45 °FLight rain. Partly sunny.15 mph71%29.42 "HgN/A
1:20 PM46 °FPassing clouds.15 mph66%29.42 "HgN/A
12:50 PM46 °FPassing clouds.14 mph71%29.42 "HgN/A
12:20 PM45 °FQuite cool.13 mph76%29.42 "HgN/A
11:50 AM45 °FQuite cool.12 mph76%29.42 "HgN/A
11:20 AM45 °FPassing clouds.12 mph76%29.42 "HgN/A
10:50 AM45 °FScattered clouds.12 mph76%29.42 "HgN/A
10:20 AM45 °FBroken clouds.12 mph81%29.42 "HgN/A
9:50 AM45 °FPassing clouds.10 mph81%29.42 "HgN/A
9:20 AM45 °FQuite cool.10 mph81%29.42 "HgN/A
8:50 AM45 °FPassing clouds.10 mph81%29.42 "HgN/A
8:20 AM45 °FPartly cloudy.9 mph81%29.39 "HgN/A
7:50 AM45 °FPassing clouds.12 mph81%29.39 "HgN/A
7:20 AM45 °FPassing clouds.9 mph81%29.39 "HgN/A
6:50 AM46 °FPassing clouds.9 mph82%29.39 "HgN/A
6:20 AM46 °FSprinkles. Passing clouds.10 mph82%29.39 "HgN/A
5:50 AM46 °FPartly cloudy.10 mph82%29.39 "HgN/A
5:20 AM46 °FPassing clouds.9 mph82%29.39 "HgN/A
4:20 AM46 °FPassing clouds.8 mph82%29.39 "HgN/A
3:50 AM46 °FPassing clouds.12 mph82%29.42 "HgN/A
3:20 AM46 °FPassing clouds.14 mph82%29.42 "HgN/A
2:50 AM48 °FPassing clouds.17 mph76%29.39 "HgN/A
2:20 AM48 °FPassing clouds.17 mph82%29.39 "HgN/A
1:50 AM50 °FPassing clouds.13 mph82%29.39 "HgN/A
1:20 AM50 °FOvercast.12 mph82%29.36 "HgN/A
12:50 AM50 °FPassing clouds.14 mph82%29.36 "HgN/A
12:20 AM50 °FPassing clouds.14 mph82%29.33 "HgN/A
Weather by CustomWeather, © 2014

See weather overviewHow to use our weather pages